Location: Unspecified
(0.0000°N, 0.0000°E)
Time: 02:39:19
(UTC+00:00)

Vanguard 1 - Pass Details

Date: 14 December 2023
Orbit: 653 x 3826 km, 34.3° (Epoch: 22 February)

Event Time Altitude Azimuth Distance (km) Brightness Sun altitude
Rises 10:28:59 0° 213° (SSW) 3,003 12.7 58.9°
Reaches altitude 10° 10:31:36 10° 199° (SSW) 2,049 12.1 59.3°
Maximum altitude 10:35:17 25° 142° (SE) 1,365 11.9 59.8°
Drops below altitude 10° 10:39:34 10° 86° (E) 2,396 12.4 60.5°
Sets 10:42:54 0° 73° (ENE) 3,651 13.1 61.0°
